,,,PA_Meas_PMT16A,,PR_Meas_QMR101_102,,RH_Meas_QMH101,,SR_Meas_QMS101,,TA_Meas_QMH101,,GenWind,,GenWind,
date,time,status,PA,status,PR,status,RH,status,SR,status,TA,status,DirAvg,status,SpdAvg,
2011-05-02, 00:00:04,VALID,998.429,VALID,0,VALID,93.3103,VALID,0,VALID,23.2915,VALID,95,VALID,0,
2011-05-02, 00:01:04,VALID,998.45,VALID,0,VALID,93.3026,VALID,0,VALID,23.311,VALID,95,VALID,0,
2011-05-02, 00:02:04,VALID,998.385,VALID,0,VALID,93.3255,VALID,0,VALID,23.2915,VALID,95,VALID,0,
2011-05-02, 00:03:04,VALID,998.389,VALID,0,VALID,93.3255,VALID,0,VALID,23.2719,VALID,95,VALID,0,
2011-05-02, 00:04:04,VALID,998.375,VALID,0,VALID,93.3331,VALID,0,VALID,23.2524,VALID,95,VALID,0,
2011-05-02, 00:05:04,VALID,998.349,VALID,0,VALID,93.3179,VALID,0,VALID,23.2117,VALID,130,VALID,0,
2011-05-02, 00:06:04,VALID,998.294,VALID,0,VALID,93.3026,VALID,0,VALID,23.2329,VALID,139,VALID,0,
2011-05-02, 00:07:04,VALID,998.229,VALID,0,VALID,93.3255,VALID,0,VALID,23.2117,VALID,140,VALID,0,
2011-05-02, 00:08:04,VALID,998.218,VALID,0,VALID,93.295,VALID,0,VALID,23.2507,VALID,140,VALID,0,
2011-05-02, 00:09:04,VALID,998.209,VALID,0,VALID,93.3255,VALID,0,VALID,23.2915,VALID,153,VALID,0,
2011-05-02, 00:10:04,VALID,998.19,VALID,0,VALID,93.3103,VALID,0,VALID,23.311,VALID,153,VALID,0,
2011-05-02, 00:11:04,VALID,998.21,VALID,0,VALID,93.3103,VALID,0,VALID,23.311,VALID,175,VALID,0,
2011-05-02, 00:12:04,VALID,998.224,VALID,0,VALID,93.3103,VALID,0,VALID,23.311,VALID,177,VALID,0.685156,
2011-05-02, 00:13:04,VALID,998.223,VALID,0,VALID,93.2874,VALID,0,VALID,23.311,VALID,177,VALID,0.401172,
2011-05-02, 00:14:04,VALID,998.191,VALID,0,VALID,93.2645,VALID,0,VALID,23.2915,VALID,175,VALID,0.520312,
2011-05-02, 00:15:04,VALID,998.185,VALID,0,VALID,93.234,VALID,0,VALID,23.2897,VALID,163,VALID,0.416016,
2011-05-02, 00:16:04,VALID,998.151,VALID,0,VALID,93.2263,VALID,0,VALID,23.311,VALID,163,VALID,0,
2011-05-02, 00:17:04,VALID,998.154,VALID,0,VALID,93.1958,VALID,0,VALID,23.2915,VALID,163,VALID,0,
2011-05-02, 00:18:04,VALID,998.106,VALID,0,VALID,93.1653,VALID,0,VALID,23.2719,VALID,163,VALID,0,
2011-05-02, 00:19:04,VALID,998.138,VALID,0,VALID,93.1271,VALID,0,VALID,23.2915,VALID,163,VALID,0,
2011-05-02, 00:20:04,VALID,998.136,VALID,0,VALID,93.1043,VALID,0,VALID,23.2524,VALID,163,VALID,0,
2011-05-02, 00:21:04,VALID,998.15,VALID,0,VALID,93.0508,VALID,0,VALID,23.2719,VALID,163,VALID,0,
2011-05-02, 00:22:04,VALID,998.179,VALID,0,VALID,93.0356,VALID,0,VALID,23.2524,VALID,154,VALID,0,
2011-05-02, 00:23:04,VALID,998.187,VALID,0,VALID,92.9822,VALID,0,VALID,23.2524,VALID,108,VALID,0.791016,
2011-05-02, 00:24:04,VALID,998.204,VALID,0,VALID,92.9288,VALID,0,VALID,23.2719,VALID,108,VALID,0.660937,
2011-05-02, 00:25:04,VALID,998.185,VALID,0,VALID,92.8754,VALID,0,VALID,23.2719,VALID,108,VALID,0.615234,
2011-05-02, 00:26:04,VALID,998.144,VALID,0,VALID,92.8143,VALID,0,VALID,23.2915,VALID,108,VALID,0.510156,
2011-05-02, 00:27:04,VALID,998.126,VALID,0,VALID,92.7228,VALID,0,VALID,23.2702,VALID,108,VALID,0.369531,
2011-05-02, 00:28:04,VALID,998.094,VALID,0,VALID,92.6541,VALID,0,VALID,23.2719,VALID,108,VALID,0.302734,
2011-05-02, 00:29:04,VALID,998.08,VALID,0,VALID,92.5549,VALID,0,VALID,23.2524,VALID,108,VALID,0.214844,
2011-05-02, 00:30:04,VALID,998.025,VALID,0,VALID,92.4939,VALID,0,VALID,23.2117,VALID,108,VALID,0,
2011-05-02, 00:31:04,VALID,998.018,VALID,0,VALID,92.4557,VALID,0,VALID,23.2134,VALID,108,VALID,0,
2011-05-02, 00:32:04,VALID,997.997,VALID,0,VALID,92.4023,VALID,0,VALID,23.1744,VALID,108,VALID,0,
2011-05-02, 00:33:04,VALID,997.989,VALID,0,VALID,92.3642,VALID,0,VALID,23.1744,VALID,108,VALID,0,
2011-05-02, 00:34:04,VALID,997.965,VALID,0,VALID,92.3642,VALID,0,VALID,23.1549,VALID,108,VALID,0,
2011-05-02, 00:35:04,VALID,997.948,VALID,0,VALID,92.3947,VALID,0,VALID,23.1549,VALID,108,VALID,0,
2011-05-02, 00:36:04,VALID,997.952,VALID,0,VALID,92.4481,VALID,0,VALID,23.1744,VALID,108,VALID,0,
2011-05-02, 00:37:04,VALID,997.952,VALID,0,VALID,92.4939,VALID,0,VALID,23.1726,VALID,108,VALID,0,
2011-05-02, 00:38:04,VALID,997.97,VALID,0,VALID,92.532,VALID,0,VALID,23.1726,VALID,108,VALID,0,
2011-05-02, 00:39:04,VALID,997.984,VALID,0,VALID,92.5549,VALID,0,VALID,23.1939,VALID,108,VALID,0,
2011-05-02, 00:40:04,VALID,997.975,VALID,0,VALID,92.6083,VALID,0,VALID,23.1726,VALID,108,VALID,0,
2011-05-02, 00:41:04,VALID,997.948,VALID,0,VALID,92.616,VALID,0,VALID,23.1726,VALID,108,VALID,0,
2011-05-02, 00:42:04,VALID,997.95,VALID,0,VALID,92.6465,VALID,0,VALID,23.1531,VALID,108,VALID,0,
2011-05-02, 00:43:04,VALID,997.912,VALID,0,VALID,92.6541,VALID,0,VALID,23.1531,VALID,108,VALID,0,
2011-05-02, 00:44:04,VALID,997.9,VALID,0,VALID,92.6694,VALID,0,VALID,23.1549,VALID,108,VALID,0,
2011-05-02, 00:45:04,VALID,997.897,VALID,0,VALID,92.6846,VALID,0,VALID,23.1549,VALID,108,VALID,0,
2011-05-02, 00:46:04,VALID,997.891,VALID,0,VALID,92.6923,VALID,0,VALID,23.1159,VALID,108,VALID,0,
2011-05-02, 00:47:04,VALID,997.886,VALID,0,VALID,92.7304,VALID,0,VALID,23.1159,VALID,108,VALID,0,
2011-05-02, 00:48:04,VALID,997.87,VALID,0,VALID,92.738,VALID,0,VALID,23.1159,VALID,108,VALID,0,
2011-05-02, 00:49:04,VALID,997.843,VALID,0,VALID,92.7609,VALID,0,VALID,23.1354,VALID,109,VALID,0,
2011-05-02, 00:50:04,VALID,997.868,VALID,0,VALID,92.738,VALID,0,VALID,23.0946,VALID,121,VALID,0,
2011-05-02, 00:51:04,VALID,997.833,VALID,0,VALID,92.7457,VALID,0,VALID,23.0964,VALID,121,VALID,0,
2011-05-02, 00:52:04,VALID,997.829,VALID,0,VALID,92.738,VALID,0,VALID,23.1159,VALID,121,VALID,0,
2011-05-02, 00:53:04,VALID,997.809,VALID,0,VALID,92.7533,VALID,0,VALID,23.1159,VALID,144,VALID,0,
2011-05-02, 00:54:04,VALID,997.816,VALID,0,VALID,92.677,VALID,0,VALID,23.0964,VALID,138,VALID,0.564453,
2011-05-02, 00:55:04,VALID,997.83,VALID,0,VALID,92.6617,VALID,0,VALID,23.0769,VALID,138,VALID,0.450391,
2011-05-02, 00:56:04,VALID,997.825,VALID,0,VALID,92.6388,VALID,0,VALID,23.0573,VALID,138,VALID,0.348437,
2011-05-02, 00:57:04,VALID,997.819,VALID,0,VALID,92.5626,VALID,0,VALID,23.0378,VALID,138,VALID,0.382031,
2011-05-02, 00:58:04,VALID,997.848,VALID,0,VALID,92.4939,VALID,0,VALID,23.0378,VALID,138,VALID,0.159375,
2011-05-02, 00:59:04,VALID,997.836,VALID,0,VALID,92.4328,VALID,0,VALID,22.9988,VALID,138,VALID,0.164063,
2011-05-02, 01:00:04,VALID,997.832,VALID,0,VALID,92.3794,VALID,0,VALID,22.9988,VALID,138,VALID,0,
2011-05-02, 01:01:04,VALID,997.842,VALID,0,VALID,92.3794,VALID,0,VALID,22.9988,VALID,138,VALID,0,
2011-05-02, 01:02:04,VALID,997.828,VALID,0,VALID,92.41,VALID,0,VALID,22.9971,VALID,138,VALID,0,
2011-05-02, 01:03:04,VALID,997.804,VALID,0,VALID,92.4557,VALID,0,VALID,22.9793,VALID,138,VALID,0,
2011-05-02, 01:04:04,VALID,997.777,VALID,0,VALID,92.4786,VALID,0,VALID,22.9793,VALID,138,VALID,0,
2011-05-02, 01:05:04,VALID,997.751,VALID,0,VALID,92.4863,VALID,0,VALID,22.9403,VALID,138,VALID,0,
2011-05-02, 01:06:04,VALID,997.763,VALID,0,VALID,92.5397,VALID,0,VALID,22.9208,VALID,138,VALID,0.283594,
2011-05-02, 01:07:04,VALID,997.74,VALID,0,VALID,92.5702,VALID,0,VALID,22.9403,VALID,138,VALID,0,
2011-05-02, 01:08:04,VALID,997.709,VALID,0,VALID,92.5854,VALID,0,VALID,22.9403,VALID,138,VALID,0,
2011-05-02, 01:09:04,VALID,997.704,VALID,0,VALID,92.6617,VALID,0,VALID,22.9598,VALID,138,VALID,0,
2011-05-02, 01:10:04,VALID,997.697,VALID,0,VALID,92.677,VALID,0,VALID,22.9598,VALID,138,VALID,0,
2011-05-02, 01:11:04,VALID,997.676,VALID,0,VALID,92.6541,VALID,0,VALID,22.9208,VALID,138,VALID,0,
2011-05-02, 01:12:04,VALID,997.671,VALID,0,VALID,92.6465,VALID,0,VALID,22.9013,VALID,138,VALID,0,
2011-05-02, 01:13:05,VALID,997.699,VALID,0,VALID,92.6312,VALID,0,VALID,22.8605,VALID,138,VALID,0,
2011-05-02, 01:14:05,VALID,997.706,VALID,0,VALID,92.6541,VALID,0,VALID,22.8818,VALID,138,VALID,0,
2011-05-02, 01:15:05,VALID,997.698,VALID,0,VALID,92.6694,VALID,0,VALID,22.8818,VALID,138,VALID,0,
2011-05-02, 01:16:05,VALID,997.704,VALID,0,VALID,92.7075,VALID,0,VALID,22.9013,VALID,138,VALID,0,
2011-05-02, 01:17:05,VALID,997.687,VALID,0,VALID,92.7533,VALID,0,VALID,22.9208,VALID,138,VALID,0,
2011-05-02, 01:18:05,VALID,997.693,VALID,0,VALID,92.7914,VALID,0,VALID,22.9208,VALID,138,VALID,0,
2011-05-02, 01:19:05,VALID,997.65,VALID,0,VALID,92.8296,VALID,0,VALID,22.9208,VALID,138,VALID,0,
2011-05-02, 01:20:05,VALID,997.629,VALID,0,VALID,92.8601,VALID,0,VALID,22.9013,VALID,138,VALID,0,
2011-05-02, 01:21:05,VALID,997.64,VALID,0,VALID,92.8754,VALID,0,VALID,22.9013,VALID,138,VALID,0,
2011-05-02, 01:22:05,VALID,997.623,VALID,0,VALID,92.8983,VALID,0,VALID,22.9013,VALID,138,VALID,0,
2011-05-02, 01:23:05,VALID,997.613,VALID,0,VALID,92.9364,VALID,0,VALID,22.8818,VALID,138,VALID,0,
2011-05-02, 01:24:05,VALID,997.6,VALID,0,VALID,92.9364,VALID,0,VALID,22.8818,VALID,138,VALID,0,
2011-05-02, 01:25:05,VALID,997.563,VALID,0,VALID,92.9898,VALID,0,VALID,22.8818,VALID,138,VALID,0,
2011-05-02, 01:26:05,VALID,997.573,VALID,0,VALID,93.0127,VALID,0,VALID,22.9013,VALID,138,VALID,0,
2011-05-02, 01:27:05,VALID,997.56,VALID,0,VALID,93.0508,VALID,0,VALID,22.9013,VALID,138,VALID,0,
2011-05-02, 01:28:05,VALID,997.585,VALID,0,VALID,93.0737,VALID,0,VALID,22.8818,VALID,138,VALID,0,
2011-05-02, 01:29:05,VALID,997.555,VALID,0,VALID,93.1043,VALID,0,VALID,22.8818,VALID,138,VALID,0,
2011-05-02, 01:30:05,VALID,997.569,VALID,0,VALID,93.1119,VALID,0,VALID,22.8818,VALID,138,VALID,0,
2011-05-02, 01:31:05,VALID,997.563,VALID,0,VALID,93.1348,VALID,0,VALID,22.8623,VALID,138,VALID,0,
2011-05-02, 01:32:05,VALID,997.565,VALID,0,VALID,93.1653,VALID,0,VALID,22.8818,VALID,138,VALID,0,
2011-05-02, 01:33:05,VALID,997.556,VALID,0,VALID,93.1729,VALID,0,VALID,22.8427,VALID,105,VALID,0,
2011-05-02, 01:34:05,VALID,997.571,VALID,0,VALID,93.1958,VALID,0,VALID,22.8427,VALID,61,VALID,0,
2011-05-02, 01:35:05,VALID,997.534,VALID,0,VALID,93.2263,VALID,0,VALID,22.8427,VALID,53,VALID,0,
2011-05-02, 01:36:05,VALID,997.528,VALID,0,VALID,93.2111,VALID,0,VALID,22.8623,VALID,53,VALID,0,
2011-05-02, 01:37:05,VALID,997.483,VALID,0,VALID,93.2492,VALID,0,VALID,22.8445,VALID,53,VALID,0,
2011-05-02, 01:38:05,VALID,997.427,VALID,0,VALID,93.2645,VALID,0,VALID,22.8037,VALID,53,VALID,0,
2011-05-02, 01:39:05,VALID,997.401,VALID,0,VALID,93.2645,VALID,0,VALID,22.8037,VALID,53,VALID,0,
2011-05-02, 01:40:05,VALID,997.37,VALID,0,VALID,93.2797,VALID,0,VALID,22.8037,VALID,53,VALID,0,
2011-05-02, 01:41:05,VALID,997.386,VALID,0,VALID,93.3103,VALID,0,VALID,22.8037,VALID,53,VALID,0,
2011-05-02, 01:42:05,VALID,997.409,VALID,0,VALID,93.3179,VALID,0,VALID,22.8232,VALID,53,VALID,0,
2011-05-02, 01:43:05,VALID,997.393,VALID,0,VALID,93.3408,VALID,0,VALID,22.8427,VALID,53,VALID,0,
2011-05-02, 01:44:05,VALID,997.382,VALID,0,VALID,93.3408,VALID,0,VALID,22.8445,VALID,53,VALID,0,
2011-05-02, 01:45:05,VALID,997.406,VALID,0,VALID,93.3484,VALID,0,VALID,22.8232,VALID,53,VALID,0,
2011-05-02, 01:46:05,VALID,997.416,VALID,0,VALID,93.3942,VALID,0,VALID,22.8623,VALID,53,VALID,0,
2011-05-02, 01:47:05,VALID,997.429,VALID,0,VALID,93.3789,VALID,0,VALID,22.8623,VALID,53,VALID,0,
2011-05-02, 01:48:05,VALID,997.409,VALID,0,VALID,93.3942,VALID,0,VALID,22.8623,VALID,53,VALID,0,
2011-05-02, 01:49:05,VALID,997.432,VALID,0,VALID,93.4171,VALID,0,VALID,22.8623,VALID,53,VALID,0,
2011-05-02, 01:50:05,VALID,997.419,VALID,0,VALID,93.3942,VALID,0,VALID,22.8232,VALID,53,VALID,0,
2011-05-02, 01:51:05,VALID,997.423,VALID,0,VALID,93.4018,VALID,0,VALID,22.7842,VALID,53,VALID,0,
2011-05-02, 01:52:05,VALID,997.412,VALID,0,VALID,93.4094,VALID,0,VALID,22.7647,VALID,53,VALID,0,
2011-05-02, 01:53:05,VALID,997.382,VALID,0,VALID,93.4094,VALID,0,VALID,22.7452,VALID,53,VALID,0,
2011-05-02, 01:54:05,VALID,997.391,VALID,0,VALID,93.4171,VALID,0,VALID,22.7452,VALID,53,VALID,0,
2011-05-02, 01:55:05,VALID,997.389,VALID,0,VALID,93.4171,VALID,0,VALID,22.7257,VALID,53,VALID,0,
2011-05-02, 01:56:05,VALID,997.389,VALID,0,VALID,93.4171,VALID,0,VALID,22.7452,VALID,53,VALID,0,
2011-05-02, 01:57:05,VALID,997.392,VALID,0,VALID,93.4171,VALID,0,VALID,22.7452,VALID,53,VALID,0,
2011-05-02, 01:58:05,VALID,997.405,VALID,0,VALID,93.44,VALID,0,VALID,22.7452,VALID,53,VALID,0,
2011-05-02, 01:59:05,VALID,997.409,VALID,0,VALID,93.44,VALID,0,VALID,22.7842,VALID,53,VALID,0,
2011-05-02, 02:00:05,VALID,997.418,VALID,0,VALID,93.4171,VALID,0,VALID,22.8037,VALID,53,VALID,0,
2011-05-02, 02:01:05,VALID,997.448,VALID,0,VALID,93.4476,VALID,0,VALID,22.8037,VALID,53,VALID,0,
2011-05-02, 02:02:05,VALID,997.437,VALID,0,VALID,93.4323,VALID,0,VALID,22.8427,VALID,53,VALID,0,
2011-05-02, 02:03:05,VALID,997.439,VALID,0,VALID,93.44,VALID,0,VALID,22.8427,VALID,115,VALID,0,
2011-05-02, 02:04:05,VALID,997.466,VALID,0,VALID,93.4323,VALID,0,VALID,22.8818,VALID,121,VALID,0,
2011-05-02, 02:05:05,VALID,997.478,VALID,0,VALID,93.4247,VALID,0,VALID,22.9013,VALID,121,VALID,0,
2011-05-02, 02:06:05,VALID,997.494,VALID,0,VALID,93.4323,VALID,0,VALID,22.9403,VALID,121,VALID,0,
2011-05-02, 02:07:05,VALID,997.503,VALID,0,VALID,93.44,VALID,0,VALID,22.9793,VALID,121,VALID,0,
2011-05-02, 02:08:05,VALID,997.516,VALID,0,VALID,93.4247,VALID,0,VALID,22.9793,VALID,121,VALID,0,
2011-05-02, 02:09:05,VALID,997.534,VALID,0,VALID,93.4323,VALID,0,VALID,23.0006,VALID,61,VALID,0,
2011-05-02, 02:10:05,VALID,997.519,VALID,0,VALID,93.4171,VALID,0,VALID,22.9988,VALID,61,VALID,0,
2011-05-02, 02:11:05,VALID,997.533,VALID,0,VALID,93.4171,VALID,0,VALID,22.9988,VALID,7,VALID,0,
2011-05-02, 02:12:05,VALID,997.536,VALID,0,VALID,93.4094,VALID,0,VALID,23.0183,VALID,7,VALID,0,
2011-05-02, 02:13:05,VALID,997.517,VALID,0,VALID,93.3942,VALID,0,VALID,23.0183,VALID,7,VALID,0,
2011-05-02, 02:14:05,VALID,997.481,VALID,0,VALID,93.3789,VALID,0,VALID,23.0378,VALID,7,VALID,0,
2011-05-02, 02:15:05,VALID,997.478,VALID,0,VALID,93.4018,VALID,0,VALID,23.0378,VALID,7,VALID,0,
2011-05-02, 02:16:05,VALID,997.462,VALID,0,VALID,93.3713,VALID,0,VALID,23.0769,VALID,7,VALID,0,
2011-05-02, 02:17:05,VALID,997.43,VALID,0,VALID,93.3789,VALID,0,VALID,23.0769,VALID,7,VALID,0,
2011-05-02, 02:18:05,VALID,997.438,VALID,0,VALID,93.3637,VALID,0,VALID,23.0769,VALID,7,VALID,0,
2011-05-02, 02:19:05,VALID,997.388,VALID,0,VALID,93.3331,VALID,0,VALID,23.0769,VALID,7,VALID,0,
2011-05-02, 02:20:05,VALID,997.432,VALID,0,VALID,93.3331,VALID,0,VALID,23.0964,VALID,7,VALID,0,
2011-05-02, 02:21:05,VALID,997.459,VALID,0,VALID,93.3103,VALID,0,VALID,23.1159,VALID,7,VALID,0.443359,
2011-05-02, 02:22:05,VALID,997.461,VALID,0,VALID,93.3026,VALID,0,VALID,23.1354,VALID,7,VALID,0.211328,
2011-05-02, 02:23:05,VALID,997.482,VALID,0,VALID,93.295,VALID,0,VALID,23.1354,VALID,7,VALID,0,
2011-05-02, 02:24:05,VALID,997.507,VALID,0,VALID,93.2645,VALID,0,VALID,23.1354,VALID,7,VALID,0,
2011-05-02, 02:25:05,VALID,997.524,VALID,0,VALID,93.2645,VALID,0,VALID,23.1354,VALID,7,VALID,0,
2011-05-02, 02:26:05,VALID,997.525,VALID,0,VALID,93.2492,VALID,0,VALID,23.1159,VALID,7,VALID,0,
2011-05-02, 02:27:05,VALID,997.538,VALID,0,VALID,93.2416,VALID,0,VALID,23.1159,VALID,7,VALID,0,
2011-05-02, 02:28:05,VALID,997.553,VALID,0,VALID,93.234,VALID,0,VALID,23.1159,VALID,7,VALID,0,
2011-05-02, 02:29:05,VALID,997.515,VALID,0,VALID,93.2416,VALID,0,VALID,23.1549,VALID,7,VALID,0,
2011-05-02, 02:30:05,VALID,997.521,VALID,0,VALID,93.2187,VALID,0,VALID,23.1549,VALID,12,VALID,0,
2011-05-02, 02:31:05,VALID,997.505,VALID,0,VALID,93.2111,VALID,0,VALID,23.1354,VALID,24,VALID,0,
2011-05-02, 02:32:05,VALID,997.513,VALID,0,VALID,93.2034,VALID,0,VALID,23.1549,VALID,24,VALID,0,
2011-05-02, 02:33:05,VALID,997.506,VALID,0,VALID,93.1958,VALID,0,VALID,23.1159,VALID,24,VALID,0,
2011-05-02, 02:34:05,VALID,997.491,VALID,0,VALID,93.1805,VALID,0,VALID,23.1159,VALID,24,VALID,0,
2011-05-02, 02:35:05,VALID,997.514,VALID,0,VALID,93.1958,VALID,0,VALID,23.1159,VALID,24,VALID,0,
2011-05-02, 02:36:05,VALID,997.475,VALID,0,VALID,93.1653,VALID,0,VALID,23.0964,VALID,24,VALID,0,
2011-05-02, 02:37:05,VALID,997.478,VALID,0,VALID,93.1882,VALID,0,VALID,23.0964,VALID,24,VALID,0,
2011-05-02, 02:38:05,VALID,997.476,VALID,0,VALID,93.1882,VALID,0,VALID,23.0964,VALID,24,VALID,0,
2011-05-02, 02:39:05,VALID,997.492,VALID,0,VALID,93.1729,VALID,0,VALID,23.0964,VALID,24,VALID,0,
2011-05-02, 02:40:05,VALID,997.439,VALID,0,VALID,93.1882,VALID,0,VALID,23.0769,VALID,24,VALID,0,
2011-05-02, 02:41:05,VALID,997.442,VALID,0,VALID,93.1805,VALID,0,VALID,23.0751,VALID,24,VALID,0,
2011-05-02, 02:42:05,VALID,997.424,VALID,0,VALID,93.1882,VALID,0,VALID,23.0769,VALID,24,VALID,0,
2011-05-02, 02:43:05,VALID,997.416,VALID,0,VALID,93.1729,VALID,0,VALID,23.0769,VALID,24,VALID,0,
2011-05-02, 02:44:05,VALID,997.433,VALID,0,VALID,93.1882,VALID,0,VALID,23.0769,VALID,24,VALID,0,
2011-05-02, 02:45:05,VALID,997.419,VALID,0,VALID,93.2034,VALID,0,VALID,23.0556,VALID,24,VALID,0,
2011-05-02, 02:46:05,VALID,997.368,VALID,0,VALID,93.2034,VALID,0,VALID,23.0964,VALID,24,VALID,0,
2011-05-02, 02:47:05,VALID,997.359,VALID,0,VALID,93.1882,VALID,0,VALID,23.1159,VALID,24,VALID,0,
2011-05-02, 02:48:05,VALID,997.337,VALID,0,VALID,93.2034,VALID,0,VALID,23.1354,VALID,24,VALID,0,
2011-05-02, 02:49:05,VALID,997.355,VALID,0,VALID,93.2111,VALID,0,VALID,23.1336,VALID,24,VALID,0,
2011-05-02, 02:50:05,VALID,997.345,VALID,0,VALID,93.2111,VALID,0,VALID,23.1531,VALID,24,VALID,0,
2011-05-02, 02:51:05,VALID,997.307,VALID,0,VALID,93.234,VALID,0,VALID,23.1744,VALID,24,VALID,0,
2011-05-02, 02:52:05,VALID,997.288,VALID,0,VALID,93.2187,VALID,0,VALID,23.1726,VALID,24,VALID,0,
2011-05-02, 02:53:05,VALID,997.259,VALID,0,VALID,93.234,VALID,0,VALID,23.1531,VALID,24,VALID,0,
2011-05-02, 02:54:05,VALID,997.253,VALID,0,VALID,93.2263,VALID,0,VALID,23.1531,VALID,24,VALID,0,
2011-05-02, 02:55:05,VALID,997.261,VALID,0,VALID,93.2111,VALID,0,VALID,23.1141,VALID,24,VALID,0,
2011-05-02, 02:56:05,VALID,997.256,VALID,0,VALID,93.2187,VALID,0,VALID,23.1336,VALID,24,VALID,0,
2011-05-02, 02:57:05,VALID,997.258,VALID,0,VALID,93.2034,VALID,0,VALID,23.1549,VALID,24,VALID,0,
2011-05-02, 02:58:05,VALID,997.279,VALID,0,VALID,93.2263,VALID,0,VALID,23.1549,VALID,24,VALID,0,
2011-05-02, 02:59:05,VALID,997.293,VALID,0,VALID,93.2111,VALID,0,VALID,23.1336,VALID,24,VALID,0,
2011-05-02, 03:00:05,VALID,997.258,VALID,0,VALID,93.2187,VALID,0,VALID,23.1159,VALID,24,VALID,0,
2011-05-02, 03:01:05,VALID,997.274,VALID,0,VALID,93.2034,VALID,0,VALID,23.0769,VALID,24,VALID,0,
2011-05-02, 03:02:05,VALID,997.274,VALID,0,VALID,93.2111,VALID,0,VALID,23.0378,VALID,24,VALID,0,
2011-05-02, 03:03:05,VALID,997.285,VALID,0,VALID,93.2111,VALID,0,VALID,23.0183,VALID,5,VALID,0,
2011-05-02, 03:04:05,VALID,997.265,VALID,0,VALID,93.1958,VALID,0,VALID,22.9988,VALID,5,VALID,0,
2011-05-02, 03:05:05,VALID,997.254,VALID,0,VALID,93.1958,VALID,0,VALID,22.9793,VALID,5,VALID,0,
2011-05-02, 03:06:05,VALID,997.24,VALID,0,VALID,93.2187,VALID,0,VALID,22.9793,VALID,5,VALID,0,
2011-05-02, 03:07:05,VALID,997.259,VALID,0,VALID,93.2416,VALID,0,VALID,23.0183,VALID,5,VALID,0,
2011-05-02, 03:08:05,VALID,997.24,VALID,0,VALID,93.2645,VALID,0,VALID,23.0769,VALID,23,VALID,0,
2011-05-02, 03:09:05,VALID,997.251,VALID,0,VALID,93.2874,VALID,0,VALID,23.0964,VALID,23,VALID,0,
2011-05-02, 03:10:05,VALID,997.226,VALID,0,VALID,93.2797,VALID,0,VALID,23.0769,VALID,23,VALID,0,
2011-05-02, 03:11:05,VALID,997.274,VALID,0,VALID,93.2645,VALID,0,VALID,23.0361,VALID,23,VALID,0,
2011-05-02, 03:12:05,VALID,997.262,VALID,0,VALID,93.295,VALID,0,VALID,23.0361,VALID,23,VALID,0,
2011-05-02, 03:13:05,VALID,997.237,VALID,0,VALID,93.2874,VALID,0,VALID,23.0964,VALID,23,VALID,0,
2011-05-02, 03:14:05,VALID,997.248,VALID,0,VALID,93.3179,VALID,0,VALID,23.0946,VALID,23,VALID,0,
2011-05-02, 03:15:05,VALID,997.204,VALID,0,VALID,93.3331,VALID,0,VALID,23.1159,VALID,23,VALID,0,
2011-05-02, 03:16:05,VALID,997.193,VALID,0,VALID,93.3408,VALID,0,VALID,23.0964,VALID,23,VALID,0,
2011-05-02, 03:17:05,VALID,997.22,VALID,0,VALID,93.3408,VALID,0,VALID,23.0573,VALID,23,VALID,0,
2011-05-02, 03:18:05,VALID,997.194,VALID,0,VALID,93.3179,VALID,0,VALID,23.0183,VALID,23,VALID,0,
2011-05-02, 03:19:05,VALID,997.228,VALID,0,VALID,93.3408,VALID,0,VALID,22.9598,VALID,23,VALID,0,
2011-05-02, 03:20:05,VALID,997.167,VALID,0,VALID,93.356,VALID,0,VALID,22.9208,VALID,23,VALID,0,
2011-05-02, 03:21:05,VALID,997.196,VALID,0,VALID,93.3484,VALID,0,VALID,22.9403,VALID,23,VALID,0,
2011-05-02, 03:22:05,VALID,997.212,VALID,0,VALID,93.3637,VALID,0,VALID,22.9598,VALID,23,VALID,0,
2011-05-02, 03:23:05,VALID,997.2,VALID,0,VALID,93.3789,VALID,0,VALID,22.9598,VALID,23,VALID,0,
2011-05-02, 03:24:05,VALID,997.212,VALID,0,VALID,93.3789,VALID,0,VALID,22.9793,VALID,23,VALID,0,
2011-05-02, 03:25:05,VALID,997.211,VALID,0,VALID,93.3942,VALID,0,VALID,22.9793,VALID,23,VALID,0,
2011-05-02, 03:26:05,VALID,997.236,VALID,0,VALID,93.3789,VALID,0,VALID,22.9598,VALID,23,VALID,0,
2011-05-02, 03:27:05,VALID,997.269,VALID,0,VALID,93.3942,VALID,0,VALID,22.9793,VALID,23,VALID,0,
2011-05-02, 03:28:05,VALID,997.31,VALID,0,VALID,93.4094,VALID,0,VALID,22.9598,VALID,145,VALID,0,
2011-05-02, 03:29:05,VALID,997.347,VALID,0,VALID,93.4094,VALID,0,VALID,22.8995,VALID,145,VALID,0,
2011-05-02, 03:30:05,VALID,997.401,VALID,0,VALID,93.4247,VALID,0,VALID,22.8623,VALID,145,VALID,0,
2011-05-02, 03:31:05,VALID,997.438,VALID,0,VALID,93.4018,VALID,0,VALID,22.8835,VALID,145,VALID,0,
2011-05-02, 03:32:05,VALID,997.439,VALID,0,VALID,93.4323,VALID,0,VALID,22.8818,VALID,145,VALID,0,
2011-05-02, 03:33:05,VALID,997.49,VALID,0,VALID,93.4247,VALID,0,VALID,22.9013,VALID,145,VALID,0,
2011-05-02, 03:34:05,VALID,997.479,VALID,0,VALID,93.4323,VALID,0,VALID,22.9225,VALID,145,VALID,0,
2011-05-02, 03:35:05,VALID,997.449,VALID,0,VALID,93.4552,VALID,0,VALID,22.9208,VALID,145,VALID,0,
2011-05-02, 03:36:05,VALID,997.487,VALID,0,VALID,93.4476,VALID,0,VALID,22.9013,VALID,145,VALID,0,
2011-05-02, 03:37:05,VALID,997.509,VALID,0,VALID,93.4781,VALID,0,VALID,22.9013,VALID,145,VALID,0,
2011-05-02, 03:38:05,VALID,997.516,VALID,0,VALID,93.4552,VALID,0,VALID,22.9013,VALID,145,VALID,0,
2011-05-02, 03:39:05,VALID,997.496,VALID,0,VALID,93.4476,VALID,0,VALID,22.9013,VALID,145,VALID,0,
2011-05-02, 03:40:05,VALID,997.523,VALID,0,VALID,93.4476,VALID,0,VALID,22.9013,VALID,145,VALID,0,
2011-05-02, 03:41:05,VALID,997.495,VALID,0,VALID,93.4705,VALID,0,VALID,22.9208,VALID,145,VALID,0,
2011-05-02, 03:42:05,VALID,997.489,VALID,0,VALID,93.4476,VALID,0,VALID,22.9013,VALID,145,VALID,0,
2011-05-02, 03:43:05,VALID,997.485,VALID,0,VALID,93.4628,VALID,0,VALID,22.9208,VALID,145,VALID,0,
2011-05-02, 03:44:05,VALID,997.452,VALID,0,VALID,93.4628,VALID,0,VALID,22.8623,VALID,145,VALID,0,
2011-05-02, 03:45:05,VALID,997.48,VALID,0,VALID,93.4476,VALID,0,VALID,22.8232,VALID,145,VALID,0,
2011-05-02, 03:46:05,VALID,997.467,VALID,0,VALID,93.4705,VALID,0,VALID,22.8037,VALID,145,VALID,0,
2011-05-02, 03:47:05,VALID,997.474,VALID,0,VALID,93.4628,VALID,0,VALID,22.8037,VALID,145,VALID,0,
2011-05-02, 03:48:05,VALID,997.469,VALID,0,VALID,93.4552,VALID,0,VALID,22.8037,VALID,145,VALID,0,
2011-05-02, 03:49:05,VALID,997.491,VALID,0,VALID,93.4705,VALID,0,VALID,22.8037,VALID,145,VALID,0,
2011-05-02, 03:50:05,VALID,997.482,VALID,0,VALID,93.4552,VALID,0,VALID,22.8037,VALID,144,VALID,0,
2011-05-02, 03:51:05,VALID,997.47,VALID,0,VALID,93.4628,VALID,0,VALID,22.8232,VALID,103,VALID,0,
2011-05-02, 03:52:05,VALID,997.495,VALID,0,VALID,93.4705,VALID,0,VALID,22.8623,VALID,103,VALID,0.652734,
2011-05-02, 03:53:05,VALID,997.494,VALID,0,VALID,93.4705,VALID,0,VALID,22.8623,VALID,113,VALID,0.517187,
2011-05-02, 03:54:05,VALID,997.471,VALID,0,VALID,93.4628,VALID,0,VALID,22.8427,VALID,138,VALID,0.774219,
2011-05-02, 03:55:05,VALID,997.454,VALID,0,VALID,93.4781,VALID,0,VALID,22.8818,VALID,147,VALID,0.9625,
2011-05-02, 03:56:05,VALID,997.437,VALID,0,VALID,93.4628,VALID,0,VALID,22.9013,VALID,156,VALID,1.06875,
2011-05-02, 03:57:04,VALID,997.445,VALID,0,VALID,93.4552,VALID,0,VALID,22.9403,VALID,157,VALID,0.935938,
2011-05-02, 03:58:04,VALID,997.438,VALID,0,VALID,93.44,VALID,0,VALID,22.9598,VALID,148,VALID,0.779297,
2011-05-02, 03:59:04,VALID,997.461,VALID,0,VALID,93.44,VALID,0,VALID,22.9811,VALID,148,VALID,0.900781,